Regional Weather Roundup
Issued by NWS Sioux Falls, SD

Home | Current Version | Previous Version | Text Only | Print | Product List | Glossary Off
Versions: 1 2 3 4 5 6 7 8 9 10 11 12 13 14 15 16 17 18 19 20 21 22 23 24 25 26 27 28 29 30 31 32 33 34 35 36 37 38 39 40 41 42 43 44 45 46 47 48 49 50

000
ASUS43 KFSD 110202
RWRFSD

WEATHER ROUNDUP FOR SE SOUTH DAKOTA/SW MINNESOTA/NW IOWA
NATIONAL WEATHER SERVICE SIOUX FALLS SD
800 PM CST SUN DEC 10 2017

NOTE: "FAIR" INDICATES FEW OR NO CLOUDS BELOW 12,000 FEET WITH NO
SIGNIFICANT WEATHER AND OR OBSTRUCTIONS TO VISIBILITY.


SDZ038>040-050-052>070-110300-
SOUTHEAST SOUTH DAKOTA

CITY           SKY/WX    TMP DP  RH WIND       PRES   REMARKS
BROOKINGS      CLOUDY    33  28  81 SW8       29.99F WCI  26
CHAMBERLAIN    CLEAR     37  24  59 SW5       30.04F
HURON          CLOUDY    36  28  73 SW8       30.00F
MADISON        MOCLDY    36  32  87 SW10      29.99F
MITCHELL       CLOUDY    39  28  64 W5        30.03F
SIOUX FALLS    CLOUDY    35  29  78 SW3       30.02F
WINNER         FAIR      46  19  34 W10       30.06F
YANKTON        CLOUDY    39  25  57 CALM      30.06F
$$

MNZ071-072-080-081-089-090-097-098-110300-
SOUTHWEST MINNESOTA

CITY           SKY/WX    TMP DP  RH WIND       PRES   REMARKS
FAIRMONT       CLOUDY    31  27  85 S3        30.05F
JACKSON        CLOUDY    32  27  80 MISG      30.03S
LUVERNE        CLOUDY    30  27  86 CALM      30.03F
MARSHALL       CLOUDY    32  26  78 S6        30.00F WCI  26
MONTEVIDEO     CLOUDY    32  25  74 SW3       29.99F
PIPESTONE      CLOUDY    32  28  86 SW6       29.99F WCI  26
REDWOOD FALLS  CLOUDY    32  25  75 S5        30.01F WCI  27
TRACY          CLOUDY    33  28  82 S3        30.00F
WINDOM         CLOUDY    32  19  59 CALM      30.02F
WORTHINGTON    CLOUDY    34  28  79 SW7       30.02F WCI  28
$$

IAZ001>003-012>014-020>022-031-032-NEZ013-014-SDZ071-110300-
NORTHWEST IOWA

CITY           SKY/WX    TMP DP  RH WIND       PRES   REMARKS
CHEROKEE       CLOUDY    30  26  85 S3        30.06F
DENISON        PTCLDY    34  25  69 SW3       30.09F
ESTHERVILLE    CLOUDY    30  28  92 CALM      30.04F
LE MARS        CLOUDY    32  27  80 S9        30.07F WCI  24
ORANGE CITY    CLOUDY    36  30  80 CALM      30.04F
SHELDON        CLOUDY    32  28  86 SW3       30.02F
SIOUX CITY     CLOUDY    30  22  72 CALM      30.08F
SPENCER        CLOUDY    32  27  81 W6        30.05F WCI  26
STORM LAKE     CLOUDY    34  25  69 W8        30.06F WCI  27
$$

ABBREVIATIONS USED IN REMARKS
   TC - TEMPERATURE IN CELSIUS
  WCI - WIND CHILL INDEX
   HX - HEAT INDEX
  VSB - VISIBILITY





USA.gov is the U.S. government's official web portal to all federal, state and local government web resources and services.